Location: Dürabuch
(48.2640°N, 11.2185°E)
Time: 21:09:13
(UTC+00:00)

Cosmos 1455 - Pass Details

Date: 23 May 2024
Orbit: 445 x 459 km, 82.5° (Epoch: 23 June)

Event Time Altitude Azimuth Distance (km) Brightness Sun altitude
Rises 00:26:24 0° 354° (N) 2,460 6.8 -19.1°
Reaches altitude 10° 00:28:30 10° 359° (N) 1,585 5.7 -19.0°
Maximum altitude 00:31:53 54° 78° (ENE) 557 2.5 -18.8°
Enters shadow 00:32:57 37° 134° (SE) 723 2.7 -18.7°
